Location: Mohawk View
(42.7837°N, 73.7885°W)
Time: 16:57:31
(UTC+00:00)

Cosmos 1758 Rocket - Pass Details

Date: 17 June 2021
Orbit: 602 x 636 km, 82.5° (Epoch: 02 August)

Event Time Altitude Azimuth Distance (km) Brightness Sun altitude
Exits shadow 05:25:41 78° 141° (SE) 647 3.4 -23.5°
Maximum altitude 05:25:53 82° 97° (E) 641 3.5 -23.5°
Drops below altitude 10° 05:30:20 10° 10° (N) 2,004 7.3 -23.4°
Sets 05:32:33 0° 10° (N) 2,910 8.5 -23.3°
